Location: Étanchet
(47.9732°N, 1.3042°W)
Time: 21:54:51
(UTC+00:00)

Daily predictions for brighter satellites

Satellite Brightness Start Highest point End
(mag) Time Altitude Azimuth Time Altitude Azimuth Time Altitude Azimuth
Cosmos 2322 4.3 20:39:06 10° NNW 20:44:34 45° NE 20:49:58 10° SE
Resurs 01 Rocket 3.5 20:42:18 10° SSW 20:46:08 28° W 20:49:57 10° NW
Cosmos 1356 Rocket 3.4 20:42:18 10° S 20:46:29 74° E 20:50:41 10° NNE
Meteor 1-23 Rocket 4.3 20:41:38 10° S 20:47:20 90° W 20:53:08 10° NNE
Cosmos 1850 Rocket 4.3 20:43:35 10° SSW 20:48:47 73° WNW 20:54:00 10° NNE
Cosmos 2322 Rocket 3.1 20:43:48 10° NW 20:49:14 47° WSW 20:54:39 10° S
USA 234 4.1 20:45:12 10° ENE 20:50:33 26° SE 20:55:52 10° S
Cosmos 2333 4.4 20:44:53 10° NNW 20:50:42 80° WSW 20:56:27 10° SSE
Cosmos 807 4.3 20:48:39 10° S 20:51:32 47° E 20:54:21 10° NNE
Kosmos-1783 4.5 20:51:52 10° NW 20:55:22 71° NE 21:02:29 10° SE
EXPRESS MD2 3.0 20:53:38 10° W 20:56:40 53° N 20:58:52 10° ENE
Cosmos 1758 3.7 20:53:17 10° NNW 20:57:12 66° W 21:01:07 10° S
Cosmos 2297 Rocket 4.0 20:54:47 10° ESE 20:57:21 13° E 20:59:54 10° ENE
ARGOS Delta rocket 4.0 20:56:31 10° S 21:00:51 65° W 21:05:15 10° NNW
Cosmos 1300 3.1 20:57:42 10° NNW 21:01:13 57° W 21:04:42 10° S
Cosmos 1908 Rocket 4.4 20:59:07 10° N 21:03:06 35° ENE 21:07:02 10° SE
MOS 1 Rocket 3.7 20:59:15 10° SSE 21:04:29 62° ENE 21:09:33 10° N
Cosmos 2219 Rocket 2.3 21:00:05 10° NNW 21:05:47 82° WSW 21:11:28 10° SSE
Cosmos 1814 Rocket 4.3 21:01:21 10° NNW 21:06:40 71° WSW 21:11:58 10° SSE
ATLAS CENTAUR R/B 3.7 21:04:52 10° W 21:07:54 26° NW 21:11:01 10° NNE
Cosmos 2315 Rocket 4.3 21:01:40 10° NNW 21:08:03 74° W 21:14:23 10° S
ERS-1 Rocket 3.0 21:04:20 10° SSE 21:09:21 89° WSW 21:14:25 10° NNW
Cosmos 1570 Rocket 4.3 21:06:44 10° NNW 21:12:02 59° ENE 21:17:02 11° SE
Terra 1.8 21:07:58 10° SSE 21:12:40 84° ENE 21:17:25 10° NNW
SPOT 5 3.5 21:11:27 10° S 21:15:40 47° W 21:20:03 10° NNW
Meteor 1-4 Rocket 2.1 21:17:20 10° SSW 21:20:19 81° WNW 21:23:21 10° N
Aureole 3 4.0 21:19:54 10° S 21:24:25 84° W 21:30:07 10° N
GP-B 4.4 21:20:48 10° NNE 21:24:27 24° E 21:27:24 13° SE
Landsat 4 3.4 21:24:23 13° SSE 21:27:23 81° ENE 21:30:50 10° NNW
NOSS 0 Rocket 4.3 21:23:44 10° NNW 21:29:55 59° NE 21:35:24 13° SE
COSMOS 2428 2.8 21:26:34 10° NNW 21:32:18 80° ENE 21:37:11 15° SSE
Cosmos 1953 2.1 21:28:59 10° N 21:32:49 81° E 21:36:01 14° SSE
CZ-4C R/B 2.3 21:29:35 10° S 21:33:39 38° ESE 21:38:38 10° NE
SJ 16-02 2.4 21:29:51 10° SW 21:34:01 47° WNW 21:38:14 10° N
Cosmos 1455 1.9 21:30:57 10° N 21:34:28 77° E 21:37:14 16° SSE
Cosmos 2360 Rocket 3.8 21:29:52 10° NW 21:34:34 27° WSW 21:39:15 10° SSW
SPOT 3 Rocket 3.6 21:30:22 11° SSE 21:35:20 83° WSW 21:40:34 10° NNW
ATLAS 2AS CENTAUR R/B 3.9 21:33:12 10° NW 21:38:57 31° WSW 21:44:36 10° S
Spot 2 Rocket 3.8 21:34:57 10° S 21:39:58 65° WSW 21:45:04 10° NNW
Okean O Rocket 4.4 21:39:26 10° WSW 21:40:41 11° W 21:41:57 10° WNW
Nadezhda 1 Rocket 4.2 21:37:23 10° N 21:43:34 57° ENE 21:48:28 16° SSE
Cosmos 1703 Rocket 3.6 21:41:35 11° S 21:45:47 71° E 21:50:12 10° NNE
Cosmos 1242 Rocket 1.7 21:44:43 16° S 21:46:48 86° E 21:49:31 10° NNE
Okean 1-7 3.2 21:43:39 10° SSW 21:47:57 73° W 21:52:16 10° N
Cosmos 1315 Rocket 3.3 21:45:33 10° SSW 21:49:29 60° WNW 21:53:27 10° N
Cosmos 2208 Rocket 4.0 21:49:25 10° NNW 21:54:38 85° WSW 21:58:30 18° SSE
SeaSat 1 2.8 21:52:49 16° SSE 21:56:39 60° WSW 22:01:32 10° NW
Landsat 5 3.4 21:54:28 10° NNE 21:58:36 75° ESE 22:02:11 14° S
COSMOS 2455 2.8 21:53:29 10° SSW 21:59:26 68° ESE 22:05:27 10° NE
H-2A R/B 4.4 21:56:48 11° ESE 21:59:38 19° ENE 22:02:39 10° NNE
Cosmos 1408 2.6 22:02:06 28° SE 22:03:11 41° E 22:06:03 10° NNE
Cosmos 158 Rocket 4.0 21:58:09 10° NNW 22:03:25 76° WSW 22:07:05 19° SSE
Ariane Rocket 4.0 22:00:38 10° S 22:05:23 42° W 22:10:14 10° NNW
Cosmos 1174 4.5 22:01:05 10° NNW 22:05:58 55° NE 22:08:42 19° ESE
Cosmos 405 Rocket 4.2 22:04:52 10° NNE 22:08:03 25° ENE 22:09:55 17° ESE
SL-4 R/B 2.6 22:05:01 10° WNW 22:08:40 40° SW 22:10:36 24° SSE
Cosmos 2333 Rocket 4.5 22:08:52 10° WNW 22:12:08 16° W 22:15:24 10° SW
BlueWalker 3 3.0 22:09:09 10° W 22:12:46 47° NNW 22:16:26 10° ENE
SL-16 R/B 3.8 22:08:23 10° NNW 22:13:14 28° NE 22:18:03 10° ESE
Cosmos 1486 Rocket 3.9 22:08:49 11° SSW 22:13:42 75° ESE 22:18:56 10° NNE
CENTAUR R/B 3.3 22:11:56 20° SSE 22:14:29 28° ESE 22:20:00 10° NE
Meteor 2-5 Rocket 4.4 22:11:13 20° SSE 22:14:46 41° E 22:20:08 10° NNE
Cosmos 2237 Rocket 2.3 22:10:14 10° NNW 22:15:55 72° ENE 22:19:45 21° SE
Cosmos 2227 Rocket 3.0 22:18:48 22° SSE 22:21:29 32° ESE 22:26:28 10° NE
Cosmos 1980 3.7 22:24:33 10° NNW 22:30:17 86° WSW 22:33:48 24° SSE
Cosmos 2242 Rocket 3.6 22:31:20 23° S 22:34:09 84° E 22:38:45 10° N
USA 234 3.2 22:27:36 10° NE 22:34:12 81° SE 22:40:44 10° SW
Cosmos 1354 Rocket 4.2 22:31:07 23° S 22:34:17 55° ESE 22:39:27 10° NNE
Cosmos 1709 Rocket 4.0 22:33:28 20° S 22:38:06 81° E 22:44:28 10° N
Cosmos 2297 Rocket 2.1 22:35:31 14° SSW 22:40:26 81° ESE 22:46:07 10° NNE
Cosmos 1782 Rocket 4.5 22:40:39 10° NNW 22:44:43 40° W 22:47:21 19° SSW
Cosmos 2219 Rocket 4.5 22:46:07 10° WNW 22:48:48 14° W 22:51:29 10° SW
Cosmos 371 Rocket 3.7 22:45:02 11° SW 22:49:35 61° WNW 22:54:23 10° NNE
Terra 4.3 22:48:52 10° WSW 22:50:54 13° W 22:52:57 10° WNW
Cosmos 1300 Rocket 4.5 22:47:38 10° NNW 22:51:41 41° W 22:54:07 21° SSW
Cosmos 2219 4.1 22:51:46 25° SE 22:53:48 32° ESE 22:58:43 10° NE
Cosmos 773 Rocket 4.4 22:49:23 10° NNW 22:54:24 52° WSW 22:57:07 26° S
USA 281 3.2 22:50:46 24° SSE 22:55:04 87° ENE 23:01:42 10° NNW
Meteor 1-24 Rocket 3.7 22:52:46 24° S 22:56:21 84° E 23:01:54 10° NNE
Cosmos 1703 3.3 22:55:32 30° SSW 22:57:10 68° W 23:00:51 10° N
PSLV R/B 3.7 22:53:33 10° NNE 22:57:33 79° ESE 22:59:12 34° S
ARIANE 5 R/B 2.8 22:57:21 30° S 22:59:21 64° WSW 23:03:43 10° NNW
GP-B 4.3 22:57:40 10° NNW 23:01:42 36° W 23:04:43 16° SW
Cosmos 2263 Rocket 3.3 23:01:07 23° SE 23:02:50 27° ESE 23:07:25 10° NE
EXPRESS MD2 3.9 23:01:54 10° W 23:02:52 21° W 23:02:52 21° W
Cosmos 2084 Rocket 4.1 23:03:42 10° WSW 23:07:53 53° NW 23:11:57 10° NE
Cosmos 1378 Rocket 3.5 23:10:39 36° S 23:12:24 76° E 23:16:50 10° NNE
Cosmos 1674 Rocket 3.5 23:14:09 37° SSE 23:15:45 69° E 23:20:03 10° NNE
Cosmos 1263 4.3 23:14:28 10° N 23:17:36 57° E 23:17:58 52° ESE
NOSS 3-2 (A) 3.4 23:18:38 32° S 23:20:44 48° ESE 23:26:33 10° NE
Cosmos 1777 Rocket 4.5 23:17:07 16° SW 23:21:21 58° WNW 23:26:35 10° NNE
Cosmos 2154 Rocket 4.4 23:18:32 27° SSE 23:21:44 50° E 23:27:46 10° NNE
CZ-4C R/B 3.3 23:17:27 10° WSW 23:21:57 42° NW 23:27:37 10° NE
Cosmos 1825 1.8 23:23:13 55° SSE 23:23:50 73° E 23:27:15 10° NNE
PSLV R/B 4.2 23:25:48 10° NNE 23:29:45 40° E 23:30:49 33° SE
Cosmos 2151 Rocket 3.7 23:25:49 10° NNW 23:30:10 64° W 23:31:48 36° SSW
NOSS 3-2 (C) 4.2 23:30:23 25° SE 23:31:34 27° ESE 23:36:27 10° ENE
Cosmos 1538 Rocket 4.0 23:27:07 10° NNW 23:32:22 88° ENE 23:34:51 33° SSE
Cosmos 1818 3.9 23:27:18 10° NW 23:32:47 66° NE 23:36:27 21° SE
H-2A R/B 3.0 23:32:47 34° SSW 23:34:14 50° W 23:38:20 10° NNW
Cosmos 2098 Rocket 4.5 23:28:29 10° NNW 23:34:46 51° W 23:38:07 25° SSW
Okean 2 Rocket 3.3 23:30:41 10° NNW 23:35:09 63° W 23:36:50 36° SSW
Cosmos 1892 2.6 23:34:58 47° SW 23:35:50 70° WNW 23:39:21 10° N
Cosmos 1328 3.7 23:41:31 48° SSE 23:42:29 73° E 23:46:22 10° NNE
Cosmos 405 Rocket 4.1 23:39:54 10° NW 23:43:07 27° W 23:44:11 23° WSW
ALOS 2 2.7 23:42:15 38° S 23:43:46 65° WSW 23:48:09 10° NNW
Cosmos 332 Rocket 4.5 23:42:22 19° SW 23:45:39 51° WNW 23:50:27 10° NNE
Aureole 1 Rocket 3.1 23:48:39 44° SSE 23:49:46 63° ESE 23:54:38 10° NNE
Cosmos 1937 Rocket 4.3 23:48:31 29° SE 23:50:18 38° ESE 23:55:06 10° NE
BlueWalker 3 3.5 23:47:58 10° WNW 23:51:27 36° N 23:54:58 10° ENE
